Regional Weather Roundup
Issued by NWS Boston, MA

Current Version | Previous Version | Text Only | Print | Product List | Glossary Off
Versions: 1 2 3 4 5 6 7 8 9 10 11 12 13 14 15 16 17 18 19 20 21 22 23 24 25 26 27

000
ASUS41 KBOX 260710
RWRBOX

REGIONAL WEATHER ROUNDUP
NATIONAL WEATHER SERVICE BOSTON/NORTON MA
300 AM EDT THU APR 26 2018

NOTE:  "FAIR" INDICATES FEW OR NO CLOUDS BELOW 12,000 FEET WITH NO
SIGNIFICANT WEATHER AND/OR OBSTRUCTIONS TO VISIBILITY.

MAZALL-260800-
EASTERN MASSACHUSETTS

CITY           SKY/WX    TMP DP  RH WIND       PRES   REMARKS
BOSTON         FOG       51  51 100 SE5       29.61F VSB 1/2
BEVERLY        FOG       51  51 100 SE3       29.61F VSB 1/2
LAWRENCE       CLOUDY    56  53  90 SE3       29.62F FOG
BEDFORD        CLOUDY    57  56  96 S6        29.59F
BLUE HILL        N/A     54  54 100 S9        29.59F
NORWOOD        CLOUDY    58  57  97 SE5       29.60F FOG
MARSHFIELD     CLOUDY    57  57 100 S8        29.62F FOG
PLYMOUTH       CLOUDY    56  55  97 S7        29.62F
TAUNTON        CLOUDY    56  55  97 S7        29.61F FOG
NEW BEDFORD    CLOUDY    54  54 100 CALM      29.62F FOG
$$

MAZALL-260800-
CAPE COD AND THE ISLANDS

CITY           SKY/WX    TMP DP  RH WIND       PRES   REMARKS
FALMOUTH       DRIZZLE   52  52 100 S10G17    29.64
HYANNIS        FOG       51  51 100 VRB6      29.62F VSB 1/4
CHATHAM        FOG       50  50 100 S10       29.65F VSB 1/2
PROVINCETOWN   FOG       50  49  96 S10       29.65S VSB 3/4
NANTUCKET      FOG       48  48 100 SE13      29.63F VSB 1/2
MARTHAS VNYRD  LGT RAIN  52  52 100 SE10      29.62F
$$

MAZALL-260800-
CENTRAL AND WESTERN MASSACHUSETTS

CITY           SKY/WX    TMP DP  RH WIND       PRES   REMARKS
WORCESTER      FOG       53  53 100 CALM      29.59F VSB 1/4
FITCHBURG      LGT RAIN  54  53  97 CALM      29.60F FOG
ORANGE         LGT RAIN  54  54 100 CALM      29.59F FOG
SPRINGFIELD    CLOUDY    55  55 100 S3        29.57
WESTFIELD      CLOUDY    55  55 100 CALM      29.58F
NORTH ADAMS    CLOUDY    53  51  93 CALM      29.58F
PITTSFIELD     FOG       53  52  96 CALM      29.58F VSB 1
$$

RIZALL-260800-
RHODE ISLAND

CITY           SKY/WX    TMP DP  RH WIND       PRES   REMARKS
PROVIDENCE     FOG       52  52 100 SE8       29.61F VSB 1/2
NEWPORT        LGT RAIN  51  51 100 SE6       29.61F VSB 3/4
BLOCK ISLAND   FOG       50  50 100 CALM      29.61F VSB 3/4
SMITHFIELD     LGT RAIN  52  52 100 MISG      29.61F VSB 1/4
WESTERLY       FOG       51  51 100 CALM      29.60F VSB 1/4
$$

CTZALL-260800-
CONNECTICUT

CITY           SKY/WX    TMP DP  RH WIND       PRES   REMARKS
BRADLEY INTL   FOG       55  55 100 S8        29.58F VSB 1/2
HARTFORD       FOG       55  55 100 CALM      29.58F VSB 1/2
BRIDGEPORT     FOG       51  50  96 W3        29.58F VSB 1/4
DANBURY        CLOUDY    54  54 100 CALM      29.59F
GROTON         FOG       54  54 100 CALM      29.58F VSB 1/4
NEW HAVEN      FOG       53  52  96 CALM      29.58F VSB 1/4
CHESTER        FOG       54  54 100 CALM      29.58F VSB<1/4
MERIDEN        FOG       53  53 100 CALM      29.58F VSB 1/2
WILLIMANTIC    CLOUDY    57  56  96 SW3       29.59F
OXFORD         FOG       54  53  97 CALM      29.59F VSB 1/4
$$

MEZ002-015-021-024-NHZ003-005-008-011-012-014-VTZ005-008-260800-
NORTHERN NEW ENGLAND

CITY           SKY/WX    TMP DP  RH WIND       PRES   REMARKS
PORTLAND ME    CLOUDY    48  48 100 MISG      29.65F FOG
BANGOR ME      LGT RAIN  52  51  97 S15       29.71F
CONCORD NH     CLOUDY    50  49  96 NE5       29.61F FOG
MANCHESTER NH  FOG       52  50  93 NE3       29.60F VSB 3/4
NASHUA NH      LGT RAIN  53  53 100 CALM      29.61S VSB 3/4
PORTSMOUTH NH  FOG       48  47  99 CALM      29.61  VSB 1/8
JAFFREY NH     LGT RAIN  50  50 100 CALM      29.61S FOG
KEENE NH       LGT RAIN  52  51  97 N3        29.60F FOG
BURLINGTON VT  CLOUDY    52  50  93 CALM      29.58F
MT. WASHINGTON LGT RAIN  39  39 100 SW28G36     N/A  VSB 1/16WCI  28
$$

NYZ052-076-260800-
EASTERN NEW YORK

CITY           SKY/WX    TMP DP  RH WIND       PRES   REMARKS
ALBANY         CLOUDY    54  52  93 N3        29.60F
NEW YORK CITY  CLOUDY    55  53  93 CALM      29.59S FOG
$$

ANZALL-260800-
MARINE OBSERVATIONS

STATION/POSITION TIME  TEMP    WIND        PRES    VSBY  WAVE
                       AIR SEA DIR/SP/G                  HT/PER
                 (UTC) (F)     (DEG/KT/KT) (MB)    (MI)  (FT/S)
BOSTON BUOY      0650   48 44  140/ 12/ 14 1003.3F         3/ 7
BUZZARDS BAY     0600   50     170/ 15/ 16 1004.0F
NANTUCKET SOUND  0550   50 46  150/ 16/ 17 1004.1          3/ 4
MASS BAY-STELLWA 0604   47 44              1002.3F         5/ 8
ISLE OF SHOALS   0700   47     160/ 17/ 18 1002.6F
S OF BLOCK IS    0643      44                N/A          12/12
$$

......................KEY.........................
  SKY/WX - SKY CONDITION/PRESENT WEATHER
  TMP    - TEMPERATURE IN FAHRENHEIT
  DWPT   - DEWPOINT IN FAHRENHEIT
  RH     - RELATIVE HUMIDITY IN PERCENT
  WIND   - DIRECTION AND SPEED IN MPH
  PRES   - MEAN SEA LEVEL PRESSURE IN INCHES OF HG
  WCI    - WIND CHILL INDEX
  VSB    - VISIBILITY IN MILES
  HX     - HEAT INDEX
  TC     - TEMPERATURE IN CELSIUS
  VRB    - VARIABLE WIND DIRECTION
  N/A    - NOT AVAILABLE




USA.gov is the U.S. government's official web portal to all federal, state and local government web resources and services.